Tansei-3

operational
NORAD ID: 9841 Int'l Des: 1977-012 Owner: ISAS Country: J
MEOELLIPTICAL

关于 Tansei-3

正在加载描述...

实时位置

正在加载3D地球...

即将过境

高度历史

Altitude vs Time

uPlot chart will show altitude changes over time

两行轨道根数

1 09841U 77012A 26062.15444741 -.00000061 00000-0 -63571-4 0 9990
2 09841 65.7663 358.5097 1735632 287.7863 54.1685 10.73916213922322
Epoch: Mar 3, 2026 • Age: 21 hours

当前状态

高度 879.5 km
速度 8.01 km/s
星下点 -65.81°S, 143.57°E
类型 other

大型星座

Loading constellations...